When you browse on this site, cookies collect data to enhance your experience and personalize the content and advertising you see.
Visit our Privacy Policy to learn more. By continuing to use the site, you agree to this use of cookies and data.
  • In Portugal
  • List of Countries
  • For 7 days
  • Water Temperature
  • Weather Map
  • Weather Widgets
  • user-avatar
    Login

    Hourly Weather Evora

    Today, 18 September, Wednesday

    Time Temperature Precipitation Wind Pressure Humidity
    00:00 +16°C° 0 mm 1 mps 737 mmHg 87%
    01:00 +16°C° 0 mm 1 mps 737 mmHg 89%
    02:00 +15°C° 0 mm 1 mps 737 mmHg 90%
    03:00 +15°C° 0 mm 1 mps 737 mmHg 91%
    04:00 +15°C° 0 mm 1 mps 737 mmHg 91%
    05:00 +14°C° 0 mm 1 mps 737 mmHg 92%
    06:00 +18°C° 0 mm 1 mps 738 mmHg 80%
    07:00 +20°C° 0 mm 1 mps 738 mmHg 69%
    08:00 +23°C° 0 mm 1 mps 738 mmHg 58%
    09:00 +25°C° 0 mm 1 mps 739 mmHg 50%
    10:00 +27°C° 0 mm 1 mps 739 mmHg 42%
    11:00 +29°C° 0 mm 2 mps 739 mmHg 35%
    12:00 +30°C° 0 mm 2 mps 738 mmHg 32%
    13:00 +30°C° 0 mm 3 mps 738 mmHg 30%
    14:00 +31°C° 0 mm 3 mps 738 mmHg 28%
    15:00 +29°C° 0 mm 4 mps 738 mmHg 35%
    16:00 +27°C° 0 mm 5 mps 738 mmHg 43%
    17:00 +25°C° 0 mm 5 mps 738 mmHg 51%
    18:00 +22°C° 0 mm 5 mps 738 mmHg 59%
    19:00 +20°C° 0 mm 4 mps 738 mmHg 67%
    20:00 +18°C° 0 mm 3 mps 739 mmHg 75%
    21:00 +18°C° 0 mm 3 mps 738 mmHg 79%
    22:00 +17°C° 0 mm 2 mps 738 mmHg 83%
    23:00 +16°C° 0 mm 2 mps 738 mmHg 88%

    Tomorrow, 19 September, Thursday

    Time Temperature Precipitation Wind Pressure Humidity
    00:00 +15°C° 0 mm 1 mps 738 mmHg 88%
    01:00 +15°C° 0 mm 1 mps 738 mmHg 89%
    02:00 +15°C° 0 mm 1 mps 738 mmHg 90%
    03:00 +14°C° 0 mm 1 mps 738 mmHg 90%
    04:00 +14°C° 0 mm 1 mps 738 mmHg 91%
    05:00 +14°C° 0 mm 1 mps 738 mmHg 92%
    06:00 +16°C° 0 mm 1 mps 738 mmHg 81%
    07:00 +20°C° 0 mm 1 mps 739 mmHg 71%
    08:00 +21°C° 0 mm 2 mps 739 mmHg 61%
    09:00 +24°C° 0 mm 2 mps 739 mmHg 52%
    10:00 +26°C° 0 mm 2 mps 739 mmHg 44%
    11:00 +29°C° 0 mm 2 mps 739 mmHg 35%
    12:00 +29°C° 0 mm 3 mps 738 mmHg 34%
    13:00 +30°C° 0 mm 3 mps 738 mmHg 32%
    14:00 +30°C° 0 mm 4 mps 738 mmHg 30%
    15:00 +29°C° 0 mm 4 mps 737 mmHg 37%
    16:00 +27°C° 0 mm 5 mps 737 mmHg 44%
    17:00 +25°C° 0 mm 5 mps 737 mmHg 51%
    18:00 +22°C° 0 mm 5 mps 737 mmHg 59%
    19:00 +21°C° 0 mm 4 mps 738 mmHg 68%
    20:00 +19°C° 0 mm 4 mps 738 mmHg 76%
    21:00 +18°C° 0 mm 3 mps 738 mmHg 80%
    22:00 +17°C° 0 mm 3 mps 737 mmHg 84%
    23:00 +17°C° 0 mm 2 mps 737 mmHg 88%

    Day after tomorrow, 20 September, Friday

    Time Temperature Precipitation Wind Pressure Humidity
    00:00 +17°C° 0 mm 2 mps 737 mmHg 88%
    01:00 +17°C° 0 mm 2 mps 737 mmHg 88%
    02:00 +17°C° 0 mm 2 mps 737 mmHg 89%
    03:00 +17°C° 0.1 mm 2 mps 737 mmHg 88%
    04:00 +17°C° 0.1 mm 2 mps 736 mmHg 88%
    05:00 +17°C° 0.1 mm 2 mps 736 mmHg 88%
    06:00 +18°C° 0 mm 2 mps 737 mmHg 82%
    07:00 +18°C° 0 mm 2 mps 737 mmHg 76%
    08:00 +20°C° 0 mm 1 mps 737 mmHg 70%
    09:00 +22°C° 0 mm 1 mps 737 mmHg 62%
    10:00 +24°C° 0 mm 2 mps 737 mmHg 53%
    11:00 +26°C° 0 mm 2 mps 737 mmHg 44%
    12:00 +26°C° 0 mm 3 mps 737 mmHg 43%
    13:00 +26°C° 0 mm 3 mps 737 mmHg 41%
    14:00 +26°C° 0 mm 4 mps 736 mmHg 40%
    15:00 +25°C° 0 mm 4 mps 736 mmHg 45%
    16:00 +23°C° 0 mm 4 mps 736 mmHg 49%
    17:00 +22°C° 0 mm 4 mps 736 mmHg 54%
    18:00 +20°C° 0 mm 4 mps 736 mmHg 66%
    19:00 +19°C° 0 mm 3 mps 736 mmHg 78%
    20:00 +17°C° 0 mm 2 mps 736 mmHg 91%
    21:00 +16°C° 0 mm 2 mps 736 mmHg 92%
    22:00 +16°C° 0 mm 2 mps 736 mmHg 94%
    23:00 +16°C° 0 mm 1 mps 735 mmHg 96%

    21 September, Saturday

    Time Temperature Precipitation Wind Pressure Humidity
    00:00 +15°C° 0 mm 1 mps 735 mmHg 96%
    01:00 +15°C° 0 mm 1 mps 735 mmHg 96%
    02:00 +15°C° 0 mm 1 mps 735 mmHg 96%
    03:00 +15°C° 0 mm 1 mps 735 mmHg 95%
    04:00 +15°C° 0 mm 2 mps 735 mmHg 94%
    05:00 +15°C° 0 mm 2 mps 734 mmHg 94%
    06:00 +17°C° 0.2 mm 3 mps 735 mmHg 89%
    07:00 +18°C° 0.2 mm 4 mps 735 mmHg 83%
    08:00 +19°C° 0.2 mm 4 mps 735 mmHg 78%
    09:00 +20°C° 0 mm 5 mps 735 mmHg 73%
    10:00 +22°C° 0 mm 5 mps 735 mmHg 68%
    11:00 +23°C° 0 mm 6 mps 735 mmHg 63%
    12:00 +23°C° 0.1 mm 5 mps 735 mmHg 64%
    13:00 +23°C° 0.1 mm 5 mps 735 mmHg 64%
    14:00 +23°C° 0.1 mm 5 mps 735 mmHg 64%
    15:00 +22°C° 0.4 mm 5 mps 735 mmHg 70%
    16:00 +21°C° 0.4 mm 5 mps 735 mmHg 75%
    17:00 +21°C° 0.4 mm 4 mps 735 mmHg 81%
    18:00 +20°C° 0.2 mm 4 mps 735 mmHg 84%
    19:00 +20°C° 0.2 mm 4 mps 736 mmHg 86%
    20:00 +19°C° 0.2 mm 3 mps 736 mmHg 89%
    21:00 +18°C° 0 mm 3 mps 736 mmHg 90%
    22:00 +17°C° 0 mm 3 mps 737 mmHg 91%
    23:00 +16°C° 0 mm 3 mps 737 mmHg 92%

    22 September, Sunday

    Time Temperature Precipitation Wind Pressure Humidity
    00:00 +15°C° 0 mm 2 mps 737 mmHg 93%
    01:00 +14°C° 0 mm 2 mps 737 mmHg 93%
    02:00 +14°C° 0 mm 2 mps 737 mmHg 94%
    03:00 +13°C° 0 mm 1 mps 737 mmHg 94%
    04:00 +13°C° 0 mm 1 mps 737 mmHg 94%
    05:00 +13°C° 0 mm 1 mps 737 mmHg 93%
    06:00 +15°C° 0 mm 2 mps 738 mmHg 85%
    07:00 +17°C° 0 mm 2 mps 739 mmHg 77%
    08:00 +19°C° 0 mm 2 mps 739 mmHg 69%
    09:00 +20°C° 0 mm 3 mps 739 mmHg 59%
    10:00 +22°C° 0 mm 3 mps 739 mmHg 50%
    11:00 +25°C° 0 mm 3 mps 740 mmHg 40%
    12:00 +25°C° 0 mm 3 mps 739 mmHg 36%
    13:00 +26°C° 0 mm 3 mps 739 mmHg 32%
    14:00 +27°C° 0 mm 3 mps 739 mmHg 28%
    15:00 +26°C° 0 mm 4 mps 739 mmHg 32%
    16:00 +25°C° 0 mm 4 mps 739 mmHg 36%
    17:00 +22°C° 0 mm 4 mps 739 mmHg 40%
    18:00 +21°C° 0 mm 4 mps 740 mmHg 46%
    19:00 +19°C° 0 mm 4 mps 740 mmHg 52%
    20:00 +17°C° 0 mm 4 mps 740 mmHg 58%
    21:00 +16°C° 0 mm 3 mps 740 mmHg 62%
    22:00 +14°C° 0 mm 3 mps 740 mmHg 66%
    23:00 +13°C° 0 mm 3 mps 740 mmHg 69%

    23 September, Monday

    Time Temperature Precipitation Wind Pressure Humidity
    00:00 +14°C° 0 mm 2 mps 740 mmHg 70%
    01:00 +14°C° 0 mm 2 mps 740 mmHg 71%
    02:00 +13°C° 0 mm 2 mps 740 mmHg 71%
    03:00 +13°C° 0 mm 2 mps 740 mmHg 72%
    04:00 +12°C° 0 mm 1 mps 740 mmHg 72%
    05:00 +12°C° 0 mm 1 mps 740 mmHg 72%
    06:00 +15°C° 0 mm 1 mps 740 mmHg 62%
    07:00 +18°C° 0 mm 1 mps 740 mmHg 51%
    08:00 +20°C° 0 mm 2 mps 741 mmHg 41%
    09:00 +24°C° 0 mm 1 mps 741 mmHg 34%
    10:00 +26°C° 0 mm 1 mps 741 mmHg 26%
    11:00 +29°C° 0 mm 1 mps 741 mmHg 19%
    12:00 +30°C° 0 mm 1 mps 741 mmHg 17%
    13:00 +30°C° 0 mm 1 mps 740 mmHg 15%
    14:00 +31°C° 0 mm 1 mps 740 mmHg 13%
    15:00 +30°C° 0 mm 2 mps 739 mmHg 15%
    16:00 +28°C° 0 mm 2 mps 739 mmHg 18%
    17:00 +27°C° 0 mm 3 mps 739 mmHg 20%
    18:00 +24°C° 0 mm 3 mps 740 mmHg 29%
    19:00 +21°C° 0 mm 3 mps 740 mmHg 37%
    20:00 +19°C° 0 mm 3 mps 740 mmHg 45%
    21:00 +18°C° 0 mm 3 mps 740 mmHg 49%
    22:00 +17°C° 0 mm 3 mps 740 mmHg 52%
    23:00 +16°C° 0 mm 2 mps 740 mmHg 56%
    Show more